Location: *
(51.0333°S, 178.4667°E)
Time: 15:15:39
(UTC+00:00)

USA 186 - Pass Details

Date: 15 November 2019
Orbit: 261 x 450 km, 96.9° (Epoch: 07 October)

Event Time Altitude Azimuth Distance (km) Brightness Sun altitude
Rises 08:22:45 0° 164° (SSE) 2,222 5.8 -7.0°
Reaches altitude 10° 08:24:49 10° 158° (SSE) 1,331 4.6 -7.2°
Maximum altitude 08:27:34 50° 81° (E) 439 1.5 -7.5°
Drops below altitude 10° 08:30:06 10° 3° (N) 1,221 3.7 -7.8°
Enters shadow 08:31:08 - 359° (N) 1,668 4.4 -8.0°
